Location: Ar Ranvel
(48.3000°N, 4.8833°W)
Time: 06:04:46
(UTC+00:00)

COSMOS 2251 DEB - Visible Passes

Search period start: 28 May 2023 00:00
Search period end: 07 June 2023 00:00
Orbit: 754 x 1072 km, 74.0° (Epoch: 22 May)

Date Brightness Start Highest point End Pass type
(mag) Time Alt. Az. Time Alt. Az. Time Alt. Az.
28 May ? 03:15:36 10° N 03:19:37 22° NE 03:23:41 10° ESE visible
29 May ? 03:21:57 10° N 03:26:25 29° NE 03:30:59 10° ESE visible
30 May ? 03:28:22 10° N 03:33:11 38° ENE 03:38:06 10° SE visible
31 May ? 01:52:23 10° NNE 01:53:21 10° NE 01:54:18 10° NE visible
31 May ? 03:34:50 10° NNW 03:39:52 51° ENE 03:45:04 10° SE visible
01 Jun ? 01:57:46 10° NNE 02:00:18 13° NE 02:02:52 10° ENE visible
01 Jun ? 03:41:20 10° NNW 03:46:30 69° ENE 03:51:52 10° SSE visible
02 Jun ? 02:03:47 10° N 02:07:11 17° NE 02:10:39 10° E visible
03 Jun ? 02:10:00 10° N 02:14:00 22° NE 02:18:08 10° ESE visible
04 Jun ? 02:16:17 10° N 02:20:46 29° NE 02:25:25 10° ESE visible
05 Jun ? 02:22:39 10° N 02:27:29 37° ENE 02:32:31 10° SE visible
06 Jun ? 00:46:39 10° NNE 00:47:38 10° NE 00:48:37 10° NE visible
06 Jun ? 02:29:04 10° NNW 02:34:09 50° ENE 02:39:28 10° SE visible
